Weather reports worldwide

Advertisment
Boise/Mun., United States of America (72681): temperature & dewpoint: 28.05.2020 13:00:00 - 03.06.2020 13:00:00 (MDT)Boise/Mun., United States of America (72681): wind speed & gusts: 28.05.2020 13:00:00 - 03.06.2020 13:00:00 (MDT)Boise/Mun., United States of America (72681): wind direction: 28.05.2020 13:00:00 - 03.06.2020 13:00:00 (MDT)Boise/Mun., United States of America (72681): reduced air pressure: 28.05.2020 13:00:00 - 03.06.2020 13:00:00 (MDT)Boise/Mun., United States of America (72681): visibility: 28.05.2020 13:00:00 - 03.06.2020 13:00:00 (MDT)Boise/Mun., United States of America (72681): precipitation: 28.05.2020 13:00:00 - 03.06.2020 13:00:00 (MDT)
Date & Time tt [°C] td [°C] ff [km/h] ff [kn] fx [km/h] fx [kn] dd ppp [hPa] vv [km] rr [mm]
03.06.2020 13:00:00 - - - - - - - - - -
03.06.2020 12:00:00 24,4 6,1 13 7 - - WNW 1015,4 16 0,0
03.06.2020 11:00:00 21,1 7,8 11 6 - - NW 1016,0 16 -
03.06.2020 10:00:00 18,9 6,1 5 3 - - - 1016,2 16 -
03.06.2020 09:00:00 18,3 5,0 11 6 - - WNW 1016,2 16 -
03.06.2020 08:00:00 17,2 5,0 11 6 - - - 1016,2 16 -
03.06.2020 07:00:00 16,1 6,7 5 3 - - W 1015,8 16 -
03.06.2020 06:00:00 16,7 7,8 9 5 - - W 1015,3 16 0,0
03.06.2020 05:00:00 17,8 8,9 5 3 - - SSW 1015,0 16 -
03.06.2020 04:00:00 18,3 8,9 9 5 - - SSE 1014,7 16 -
03.06.2020 03:00:00 18,9 8,3 8 4 - - SW 1014,6 16 -
03.06.2020 02:00:00 20,0 8,3 9 5 - - WNW 1014,6 16 -
03.06.2020 01:00:00 21,7 7,8 11 6 - - ESE 1014,5 16 -
03.06.2020 00:00:00 22,2 7,8 11 6 - - SE 1014,9 16 0,0
02.06.2020 23:00:00 22,2 9,4 13 7 - - SE 1015,5 16 -
02.06.2020 22:00:00 25,0 7,2 8 4 - - N 1015,4 16 -
02.06.2020 21:00:00 26,1 6,1 5 3 - - N 1015,1 16 -
02.06.2020 20:00:00 26,7 6,7 9 5 - - NNW 1015,3 16 -
02.06.2020 19:00:00 27,8 6,1 9 5 - - NNW 1015,7 16 -
02.06.2020 18:00:00 28,3 5,0 - - - - - 1016,3 16 0,0
02.06.2020 17:00:00 28,3 4,4 9 5 - - - 1016,9 16 -
02.06.2020 16:00:00 28,3 4,4 8 4 - - - 1017,3 16 -
02.06.2020 15:00:00 27,2 4,4 9 5 - - N 1017,9 16 -
02.06.2020 14:00:00 26,7 7,8 9 5 - - - 1018,8 16 -
02.06.2020 13:00:00 24,4 7,8 5 3 - - - 1019,3 16 -
02.06.2020 12:00:00 23,3 8,9 9 5 - - - 1019,7 16 0,0
02.06.2020 11:00:00 21,1 9,4 11 6 - - WNW 1020,3 16 -
02.06.2020 10:00:00 19,4 9,4 5 3 - - WSW 1020,5 16 -
02.06.2020 09:00:00 16,7 9,4 5 3 - - ESE 1020,5 16 -
02.06.2020 08:00:00 14,4 10,0 0 0 - - N 1020,4 16 -
02.06.2020 07:00:00 12,8 8,3 9 5 - - SSE 1020,1 16 -
02.06.2020 06:00:00 12,8 8,3 8 4 - - SSE 1019,6 16 0,0
02.06.2020 05:00:00 12,8 8,9 5 3 - - SE 1019,1 16 -
02.06.2020 04:00:00 13,9 9,4 11 6 - - SSE 1018,6 16 -
02.06.2020 03:00:00 14,4 8,9 8 4 - - S 1018,5 16 -
02.06.2020 02:00:00 14,4 8,9 0 0 - - N 1018,5 16 -
02.06.2020 01:00:00 17,2 9,4 0 0 - - N 1018,2 16 -
02.06.2020 00:00:00 17,8 8,3 5 3 - - WSW 1018,2 16 0,0
01.06.2020 23:00:00 20,0 8,3 0 0 - - N 1017,8 16 -
01.06.2020 22:00:00 20,6 7,8 5 3 - - NW 1017,1 16 -
01.06.2020 21:00:00 21,1 7,2 11 6 - - N 1016,8 16 -
01.06.2020 20:00:00 21,7 7,2 15 8 - - NNW 1016,5 16 -
01.06.2020 19:00:00 22,2 7,8 11 6 - - N 1016,3 16 -
01.06.2020 18:00:00 22,8 7,8 18 10 - - N 1015,9 16 0,0
01.06.2020 17:00:00 22,8 7,2 21 11 - - NW 1015,8 16 -
01.06.2020 16:00:00 23,9 8,9 22 12 - - NNW 1015,1 16 -
01.06.2020 15:00:00 22,2 8,9 22 12 - - NNW 1015,2 16 -
01.06.2020 14:00:00 21,7 8,3 22 12 - - NW 1015,1 16 -
01.06.2020 13:00:00 20,6 9,4 22 12 - - NW 1015,5 16 -
01.06.2020 12:00:00 18,9 9,4 24 13 - - W 1015,6 16 0,0
01.06.2020 11:00:00 18,3 9,4 22 12 - - WNW 1014,3 16 -
01.06.2020 10:00:00 17,8 10,0 18 10 - - WNW 1013,6 16 -
01.06.2020 09:00:00 16,7 10,0 13 7 - - NW 1012,7 16 -
01.06.2020 08:00:00 15,6 9,4 9 5 - - W 1012,3 16 -
01.06.2020 07:00:00 15,6 9,4 8 4 - - WNW 1011,4 16 -
01.06.2020 06:00:00 15,0 9,4 8 4 - - WSW 1010,5 16 0,0
01.06.2020 05:00:00 15,0 8,9 9 5 - - S 1010,3 16 -
01.06.2020 04:00:00 16,7 8,3 5 3 - - SSE 1009,8 16 -
01.06.2020 03:00:00 17,2 7,8 5 3 - - WNW 1010,3 16 -
01.06.2020 02:00:00 17,2 7,2 5 3 - - SW 1010,5 16 -
01.06.2020 01:00:00 17,8 7,8 5 3 - - SSW 1010,3 16 -
01.06.2020 00:00:00 19,4 6,7 0 0 - - N 1010,2 16 0,0
31.05.2020 23:00:00 19,4 7,2 13 7 - - NW 1010,2 16 -
31.05.2020 22:00:00 20,6 6,7 13 7 - - NNW 1009,9 16 -
31.05.2020 21:00:00 22,2 5,0 16 9 - - NNW 1009,9 16 -
31.05.2020 20:00:00 22,8 5,0 22 12 - - N 1010,5 16 -
31.05.2020 19:00:00 24,4 6,1 18 10 - - NNE 1010,4 16 -
31.05.2020 18:00:00 25,0 6,1 16 9 78 42 NNW 1011,0 16 0,0
31.05.2020 17:00:00 24,4 5,6 11 6 - - N 1011,5 16 -
31.05.2020 16:00:00 24,4 6,1 9 5 - - NW 1012,5 16 -
31.05.2020 15:00:00 23,9 5,6 0 0 - - N 1012,6 16 -
31.05.2020 14:00:00 22,8 5,6 - - - - - 1013,1 16 -
31.05.2020 13:00:00 21,7 6,1 9 5 - - N 1013,3 16 -
31.05.2020 12:00:00 21,1 6,7 11 6 - - NNE 1014,1 16 0,0
31.05.2020 11:00:00 20,0 6,7 11 6 - - - 1014,2 16 -
31.05.2020 10:00:00 18,3 8,3 11 6 - - WNW 1014,1 16 -
31.05.2020 09:00:00 17,8 7,8 15 8 - - W 1013,7 16 -
31.05.2020 08:00:00 16,1 12,2 0 0 - - N 1013,0 16 -
31.05.2020 07:00:00 15,6 11,1 0 0 - - N 1011,7 16 -
31.05.2020 06:00:00 14,4 11,7 8 4 - - NNW 1010,6 16 -
31.05.2020 05:00:00 15,0 12,2 0 0 - - N 1009,8 16 0,0
31.05.2020 04:00:00 15,6 12,2 16 9 50 27 NNW 1008,3 16 1,0
31.05.2020 03:00:00 20,0 7,8 18 10 - - WNW 1006,4 10 -
31.05.2020 02:00:00 20,6 8,3 13 7 - - W 1004,4 16 -
31.05.2020 01:00:00 21,1 8,3 16 9 - - WNW 1002,8 16 -
31.05.2020 00:00:00 22,8 6,7 16 9 - - WNW 1001,9 16 0,0
30.05.2020 23:00:00 23,9 7,8 24 13 - - WNW 1000,9 11 -
30.05.2020 22:00:00 25,6 8,3 24 13 50 27 W 999,5 16 -
30.05.2020 21:00:00 28,9 6,1 22 12 - - ESE 997,2 16 -
30.05.2020 20:00:00 27,8 9,4 13 7 - - E 998,0 16 -
30.05.2020 19:00:00 30,6 5,0 9 5 70 38 NE 997,8 16 -
30.05.2020 18:00:00 32,8 3,3 28 15 70 38 SW 998,2 8 0,0
30.05.2020 17:00:00 35,0 0,6 44 24 61 33 SE 997,2 16 -
30.05.2020 16:00:00 35,6 2,2 29 16 63 34 ESE 998,0 16 -
30.05.2020 15:00:00 36,1 1,1 48 26 74 40 ESE 999,0 16 -
30.05.2020 14:00:00 36,1 2,8 42 23 63 34 SE 999,8 16 -
30.05.2020 13:00:00 35,0 2,2 39 21 63 34 SE 1000,9 16 -
30.05.2020 12:00:00 33,3 3,9 39 21 57 31 ESE 1001,5 16 0,0
30.05.2020 11:00:00 30,6 8,3 21 11 - - ESE 1002,2 16 -
30.05.2020 10:00:00 27,8 8,9 15 8 - - SE 1002,8 16 -
30.05.2020 09:00:00 24,4 7,8 15 8 - - SE 1003,4 16 -
30.05.2020 08:00:00 22,2 7,8 11 6 - - SE 1003,4 16 -
30.05.2020 07:00:00 22,2 8,3 0 0 - - N 1003,5 16 -
30.05.2020 06:00:00 21,1 8,9 9 5 - - ENE 1003,6 16 0,0
30.05.2020 05:00:00 23,3 6,1 15 8 - - SE 1003,9 16 -
30.05.2020 04:00:00 25,0 5,6 15 8 - - SE 1004,4 16 -
30.05.2020 03:00:00 25,0 6,1 15 8 - - SE 1004,7 16 -
30.05.2020 02:00:00 23,3 7,2 9 5 - - ESE 1005,3 16 -
30.05.2020 01:00:00 25,0 7,8 15 8 - - ESE 1005,9 16 -
30.05.2020 00:00:00 25,0 8,3 8 4 - - ESE 1006,2 16 0,0
29.05.2020 23:00:00 25,6 8,3 13 7 - - SE 1006,2 16 -
29.05.2020 22:00:00 28,3 8,9 0 0 - - N 1005,9 16 -
29.05.2020 21:00:00 31,1 9,4 9 5 - - N 1006,0 16 -
29.05.2020 20:00:00 32,8 8,9 15 8 - - N 1006,6 16 -
29.05.2020 19:00:00 34,4 7,8 11 6 - - N 1006,9 16 -
29.05.2020 18:00:00 35,0 7,8 16 9 - - NNW 1007,4 16 0,0
29.05.2020 17:00:00 34,4 7,8 5 3 - - NE 1008,1 16 -
29.05.2020 16:00:00 33,9 8,9 5 3 - - N 1008,8 16 -
29.05.2020 15:00:00 33,3 11,1 11 6 - - N 1009,2 16 -
29.05.2020 14:00:00 31,7 10,6 - - - - - 1010,1 16 -
29.05.2020 13:00:00 30,0 11,1 0 0 - - N 1010,7 16 -
29.05.2020 12:00:00 28,3 11,1 5 3 - - WSW 1011,4 16 0,0
29.05.2020 11:00:00 27,2 11,7 5 3 - - NNE 1012,0 16 -
29.05.2020 10:00:00 25,0 11,7 0 0 - - N 1012,1 16 -
29.05.2020 09:00:00 22,8 11,7 8 4 - - E 1011,9 16 -
29.05.2020 08:00:00 20,0 11,7 0 0 - - N 1011,5 16 -
29.05.2020 07:00:00 20,0 10,6 9 5 - - E 1010,7 16 -
29.05.2020 06:00:00 19,4 10,6 9 5 - - ESE 1009,8 16 0,0
29.05.2020 05:00:00 18,9 10,6 11 6 - - SE 1010,3 16 -
29.05.2020 04:00:00 20,6 10,6 0 0 - - N 1010,5 16 -
29.05.2020 03:00:00 21,7 10,6 13 7 - - ESE 1010,3 16 -
29.05.2020 02:00:00 22,8 10,6 13 7 - - ESE 1010,2 16 -
29.05.2020 01:00:00 22,8 11,1 9 5 - - SE 1010,6 16 -
29.05.2020 00:00:00 23,9 10,6 11 6 - - ESE 1010,5 16 0,0
28.05.2020 23:00:00 23,9 10,0 9 5 - - ESE 1010,9 16 -
28.05.2020 22:00:00 27,2 8,3 8 4 - - NE 1010,7 16 -
28.05.2020 21:00:00 30,0 5,6 0 0 - - N 1010,7 16 -
28.05.2020 20:00:00 31,7 5,6 8 4 - - W 1010,9 16 -
28.05.2020 19:00:00 32,8 3,3 9 5 - - NNW 1011,3 16 -
28.05.2020 18:00:00 32,8 3,9 8 4 - - NNW 1012,0 16 0,0
28.05.2020 17:00:00 32,2 2,2 0 0 - - N 1012,7 16 -
28.05.2020 16:00:00 30,6 1,7 5 3 - - - 1013,7 16 -
28.05.2020 15:00:00 30,0 4,4 9 5 - - - 1014,5 16 -
28.05.2020 14:00:00 28,9 4,4 5 3 - - - 1015,5 16 -
28.05.2020 13:00:00 27,2 3,9 8 4 - - - 1016,2 16 -

tt = temperature
td = dewpoint
ff = wind speed
fx = gusts
dd = wind direction
ppp = reduced air pressure
vv = visibility
rr = precipitation

Next stations